Terminal Aerodrome Forecast
Issued by NWS Brownsville, TX

Home | Current Version | Previous Version | Text Only | Print | Product List | Glossary On
Versions: 1 2 3 4 5 6 7 8 9 10 11 12 13 14 15 16 17 18 19
000
FTUS44 KBRO 231700 RRA
TAFMFE
TAF
KMFE 231747Z 2318/2418 13012G19KT P6SM SCT040
     FM240200 13012KT P6SM SCT250
     FM240900 14006KT P6SM FEW020
     FM241400 16010KT P6SM SCT025=

USA.gov is the U.S. government's official web portal to all federal, state and local government web resources and services.